SCP
-0 -0 -0 -0 -0 0 0 0 0 -0 -0 -0 -0 0 0 -0 0 0 0 0 0 1 0 0 0 0 0 0 0 0 0 0 0
-0 -0 -0 0 0 0 0 0 0 0 0 0 0 0 0 0 0 0 -0 0 1 1 0 0 0 0 0 0 0 0 0 0 0
0 0 0 1 1 0 0 0 0 0 0 1 1 0 0 0 0 0 0 0 0 0 -0 0 0 0 0 0 0 0 0 0 0
0 0 1 0 0 0 0 0 1 0 0 1 1 1 1 1 0 0 0 0 0 0 0 0 0 0 0 0 0 0 1 0 0
0 0 0 0 0 0 1 1 2 2 2 1 1 1 0 0 0 0 0 0 1 1 0 0 0 0 0 0 1 1 1 0 0
1 1 0 0 0 0 0 1 1 1 1 1 0 0 0 0 0 0 0 0 0 0 0 0 0 0 1 0 1 1 1 1 0
1 1 0 0 0 0 0 0 0 0 0 0 0 0 0 0 0 0 0 0 0 0 0 0 0 1 1 1 1 1 1 1 1
1 0 0 0 0 0 0 0 0 0 0 0 0 0 0 0 0 0 0 1 0 0 0 0 0 0 0 1 1 1 2 2 2
1 0 0 0 0 0 0 0 0 0 0 0 0 0 0 0 0 0 0 0 0 0 1 0 0 0 0 1 1 1 1 1 1
1 0 0 0 0 0 0 0 0 0 0 0 0 0 0 0 0 0 0 0 0 0 0 1 1 0 0 0 1 0 0 0 0
0 0 0 0 0 0 0 0 0 0 0 0 0 0 0 0 0 0 0 0 0 0 0 0 0 1 1 1 1 0 0 0 0
0 0 0 0 0 0 0 0 0 0 0 0 0 0 0 0 0 0 0 0 0 0 0 0 0 0 1 1 1 0 0 0 0
0 0 0 0 0 0 0 0 0 0 0 0 0 0 0 0 0 0 0 1 1 0 0 0 0 0 0 0 1 0 0 0 0
0 0 0 0 0 0 0 0 0 0 0 0 0 0 0 0 0 0 0 1 1 0 0 0 0 0 0 0 0 0 0 0 0
0 0 0 0 0 0 0 0 0 0 0 0 0 0 0 0 0 0 0 1 1 1 0 0 0 0 0 0 0 0 0 0 0
0 0 0 0 0 0 0 0 0 0 0 0 0 0 0 0 0 0 0 1 0 0 0 0 0 0 0 0 0 0 0 0 0
0 0 0 0 0 0 0 0 0 0 0 0 0 0 0 0 0 0 0 0 0 0 0 0 0 0 0 0 0 0 0 0 0
0 0 0 0 0 0 0 0 0 0 0 0 0 0 0 0 0 0 0 0 0 0 0 0 0 0 0 0 0 0 0 0 0
0 0 0 0 0 0 0 0 0 0 0 0 0 0 0 0 0 0 0 0 0 0 0 0 0 0 0 0 0 -0 -0 -0 0
0 0 0 0 0 0 0 0 0 0 0 0 0 0 0 0 0 0 0 0 0 0 0 0 0 0 0 0 0 0 -0 -0 0
Wind_Speed_500mb
20 22 26 27 26 24 24 25 27 28 29 31 31 33 33 34 35 37 30 28 25 23 25 24 23 26 32 34 35 33 31 31 28
26 25 24 22 18 16 14 18 20 21 24 25 24 24 27 30 31 34 32 33 38 32 35 29 32 34 33 36 36 37 37 32 32
27 25 25 22 17 12 12 11 9 13 18 15 16 19 17 18 19 21 25 26 24 31 36 41 39 40 39 38 40 42 45 40 37
27 26 25 25 24 23 21 18 16 13 13 13 11 13 12 11 9 10 20 26 24 27 23 32 40 39 41 43 45 45 45 50 49
31 31 32 32 33 33 30 27 23 22 17 13 11 8 7 4 10 13 13 17 18 23 26 27 35 42 48 48 49 51 47 45 47
30 29 27 27 27 29 30 29 26 26 25 21 12 4 4 4 6 8 11 13 16 21 27 30 31 36 44 49 52 43 46 46 47
28 25 22 22 22 22 21 20 19 17 14 15 10 4 2 8 11 15 19 22 24 25 27 31 32 33 34 36 36 41 43 42 48
28 24 20 16 14 14 12 9 5 3 3 6 9 14 15 15 17 25 28 29 31 35 33 32 34 37 35 34 39 39 54 57 72
27 21 14 12 11 8 5 3 4 6 9 12 18 23 23 25 29 28 29 31 35 39 41 39 37 36 37 39 40 40 50 61 45
21 16 14 12 9 7 8 11 14 16 17 20 26 35 36 37 41 41 38 35 39 41 39 40 42 42 39 40 41 41 38 47 60
18 15 13 12 13 15 19 21 25 27 30 31 36 39 42 49 54 57 56 43 36 35 40 43 43 44 46 46 45 49 44 48 60
16 15 15 16 19 23 26 30 32 33 35 36 38 41 45 48 48 48 47 47 45 45 43 43 48 47 47 51 52 57 52 45 54
15 16 19 23 27 32 35 38 38 40 42 44 47 48 53 55 60 55 52 52 53 53 51 52 50 52 54 56 63 60 64 56 53
18 24 27 31 34 37 38 38 40 43 47 51 53 52 54 60 61 60 59 60 56 53 54 55 60 59 57 59 60 67 69 69 62
26 31 36 39 42 43 43 44 46 49 51 50 50 50 54 58 60 58 58 59 57 55 55 56 59 63 61 57 61 64 68 77 77
36 40 42 44 47 50 48 48 50 54 54 51 51 51 54 54 51 50 52 57 61 57 58 58 60 60 61 58 55 53 58 63 65
42 46 49 50 50 53 55 52 52 53 51 51 49 50 47 47 48 48 43 45 50 56 60 62 61 60 61 61 58 54 53 53 52
46 45 45 43 47 52 54 51 48 41 45 50 51 47 49 48 43 42 40 43 46 48 52 54 55 56 57 59 62 57 57 55 51
38 37 44 54 50 47 46 48 48 49 50 50 51 50 48 48 44 43 50 53 53 52 57 61 66 72 73 73 76 73 70 64 56
39 41 40 42 46 47 48 50 48 50 53 56 53 53 51 51 61 55 56 59 60 65 60 60 59 64 65 65 77 77 81 77 70
Wind_Direction_500mb
105 133 156 169 177 183 188 197 200 205 221 229 230 233 238 238 242 245 252 256 246 253 259 259 257 253 263 260 255 244 234 237 237
102 112 124 134 142 154 171 199 207 211 220 230 228 231 236 240 242 244 253 258 258 262 273 254 266 265 265 260 255 256 242 237 234
112 114 114 114 115 128 155 175 192 215 216 215 214 219 238 243 244 252 254 267 286 290 266 269 258 263 264 266 257 252 252 240 243
119 114 110 102 95 95 104 102 96 94 129 163 165 202 211 240 283 272 262 281 300 298 294 277 267 263 266 264 260 255 252 254 242
117 114 108 102 95 92 93 89 88 89 92 105 120 138 105 326 308 308 280 285 295 301 294 285 278 275 274 266 267 261 248 249 247
128 123 116 108 100 93 90 86 83 86 89 99 105 103 325 291 275 292 295 300 307 311 307 306 296 279 275 277 262 256 248 244 251
138 132 125 118 111 108 103 95 90 84 80 69 57 83 265 269 279 287 293 294 304 307 308 305 300 297 293 285 269 254 252 252 251
153 148 141 134 127 122 110 99 99 66 2 325 303 299 289 281 279 293 297 294 296 301 301 298 295 294 294 291 282 260 245 246 255
166 160 163 159 151 147 157 194 256 296 305 304 305 307 303 301 304 301 297 290 290 292 294 293 289 288 289 286 280 281 253 238 251
178 187 186 184 196 226 260 285 301 312 311 309 304 301 299 299 300 296 290 282 281 283 282 283 284 283 282 283 280 279 275 249 244
203 203 203 224 253 275 289 300 306 311 310 308 305 302 301 303 302 300 296 287 274 274 281 282 280 278 277 277 276 275 277 263 253
212 216 236 258 275 288 293 298 299 297 295 292 291 292 294 294 291 289 286 279 273 275 278 280 281 277 273 271 269 274 272 274 267
228 247 266 278 283 286 288 288 288 287 288 289 288 291 290 289 290 286 281 275 274 277 277 282 284 276 271 268 267 264 269 270 265
264 275 282 289 291 292 290 290 288 284 286 286 289 288 289 290 288 283 278 276 272 274 277 280 282 278 271 267 265 262 263 265 266
292 290 291 292 291 291 289 287 287 288 287 289 288 288 288 288 284 278 274 269 266 266 270 277 281 281 277 271 272 272 265 260 261
296 295 294 294 293 293 290 290 289 289 290 291 289 288 287 286 284 280 271 269 270 271 274 276 276 272 272 273 271 269 268 268 270
299 297 297 296 294 292 291 290 289 289 291 290 290 287 284 290 290 286 283 276 274 276 273 272 267 267 267 270 271 268 267 262 265
300 298 297 296 295 294 293 292 289 287 294 289 292 286 288 287 283 287 285 282 279 276 273 270 268 265 267 268 266 265 264 262 257
304 302 297 300 297 296 294 291 294 295 296 297 293 294 292 291 289 287 288 286 288 284 281 273 269 270 267 262 256 250 250 255 256
305 306 305 302 305 301 298 292 294 299 299 298 297 284 279 284 291 289 288 287 285 286 287 285 282 276 278 267 258 259 257 257 259
Wind_Speed_850mb
20 22 26 27 26 24 24 25 27 28 29 31 31 33 33 34 35 37 30 28 25 23 25 24 23 26 32 34 35 33 31 31 28
26 25 24 22 18 16 14 18 20 21 24 25 24 24 27 30 31 34 32 33 38 32 35 29 32 34 33 36 36 37 37 32 32
27 25 25 22 17 12 12 11 9 13 18 15 16 19 17 18 19 21 25 26 24 31 36 41 39 40 39 38 40 42 45 40 37
27 26 25 25 24 23 21 18 16 13 13 13 11 13 12 11 9 10 20 26 24 27 23 32 40 39 41 43 45 45 45 50 49
31 31 32 32 33 33 30 27 23 22 17 13 11 8 7 4 10 13 13 17 18 23 26 27 35 42 48 48 49 51 47 45 47
30 29 27 27 27 29 30 29 26 26 25 21 12 4 4 4 6 8 11 13 16 21 27 30 31 36 44 49 52 43 46 46 47
28 25 22 22 22 22 21 20 19 17 14 15 10 4 2 8 11 15 19 22 24 25 27 31 32 33 34 36 36 41 43 42 48
28 24 20 16 14 14 12 9 5 3 3 6 9 14 15 15 17 25 28 29 31 35 33 32 34 37 35 34 39 39 54 57 72
27 21 14 12 11 8 5 3 4 6 9 12 18 23 23 25 29 28 29 31 35 39 41 39 37 36 37 39 40 40 50 61 45
21 16 14 12 9 7 8 11 14 16 17 20 26 35 36 37 41 41 38 35 39 41 39 40 42 42 39 40 41 41 38 47 60
18 15 13 12 13 15 19 21 25 27 30 31 36 39 42 49 54 57 56 43 36 35 40 43 43 44 46 46 45 49 44 48 60
16 15 15 16 19 23 26 30 32 33 35 36 38 41 45 48 48 48 47 47 45 45 43 43 48 47 47 51 52 57 52 45 54
15 16 19 23 27 32 35 38 38 40 42 44 47 48 53 55 60 55 52 52 53 53 51 52 50 52 54 56 63 60 64 56 53
18 24 27 31 34 37 38 38 40 43 47 51 53 52 54 60 61 60 59 60 56 53 54 55 60 59 57 59 60 67 69 69 62
26 31 36 39 42 43 43 44 46 49 51 50 50 50 54 58 60 58 58 59 57 55 55 56 59 63 61 57 61 64 68 77 77
36 40 42 44 47 50 48 48 50 54 54 51 51 51 54 54 51 50 52 57 61 57 58 58 60 60 61 58 55 53 58 63 65
42 46 49 50 50 53 55 52 52 53 51 51 49 50 47 47 48 48 43 45 50 56 60 62 61 60 61 61 58 54 53 53 52
46 45 45 43 47 52 54 51 48 41 45 50 51 47 49 48 43 42 40 43 46 48 52 54 55 56 57 59 62 57 57 55 51
38 37 44 54 50 47 46 48 48 49 50 50 51 50 48 48 44 43 50 53 53 52 57 61 66 72 73 73 76 73 70 64 56
39 41 40 42 46 47 48 50 48 50 53 56 53 53 51 51 61 55 56 59 60 65 60 60 59 64 65 65 77 77 81 77 70
Wind_Direction_850mb
105 133 156 169 177 183 188 197 200 205 221 229 230 233 238 238 242 245 252 256 246 253 259 259 257 253 263 260 255 244 234 237 237
102 112 124 134 142 154 171 199 207 211 220 230 228 231 236 240 242 244 253 258 258 262 273 254 266 265 265 260 255 256 242 237 234
112 114 114 114 115 128 155 175 192 215 216 215 214 219 238 243 244 252 254 267 286 290 266 269 258 263 264 266 257 252 252 240 243
119 114 110 102 95 95 104 102 96 94 129 163 165 202 211 240 283 272 262 281 300 298 294 277 267 263 266 264 260 255 252 254 242
117 114 108 102 95 92 93 89 88 89 92 105 120 138 105 326 308 308 280 285 295 301 294 285 278 275 274 266 267 261 248 249 247
128 123 116 108 100 93 90 86 83 86 89 99 105 103 325 291 275 292 295 300 307 311 307 306 296 279 275 277 262 256 248 244 251
138 132 125 118 111 108 103 95 90 84 80 69 57 83 265 269 279 287 293 294 304 307 308 305 300 297 293 285 269 254 252 252 251
153 148 141 134 127 122 110 99 99 66 2 325 303 299 289 281 279 293 297 294 296 301 301 298 295 294 294 291 282 260 245 246 255
166 160 163 159 151 147 157 194 256 296 305 304 305 307 303 301 304 301 297 290 290 292 294 293 289 288 289 286 280 281 253 238 251
178 187 186 184 196 226 260 285 301 312 311 309 304 301 299 299 300 296 290 282 281 283 282 283 284 283 282 283 280 279 275 249 244
203 203 203 224 253 275 289 300 306 311 310 308 305 302 301 303 302 300 296 287 274 274 281 282 280 278 277 277 276 275 277 263 253
212 216 236 258 275 288 293 298 299 297 295 292 291 292 294 294 291 289 286 279 273 275 278 280 281 277 273 271 269 274 272 274 267
228 247 266 278 283 286 288 288 288 287 288 289 288 291 290 289 290 286 281 275 274 277 277 282 284 276 271 268 267 264 269 270 265
264 275 282 289 291 292 290 290 288 284 286 286 289 288 289 290 288 283 278 276 272 274 277 280 282 278 271 267 265 262 263 265 266
292 290 291 292 291 291 289 287 287 288 287 289 288 288 288 288 284 278 274 269 266 266 270 277 281 281 277 271 272 272 265 260 261
296 295 294 294 293 293 290 290 289 289 290 291 289 288 287 286 284 280 271 269 270 271 274 276 276 272 272 273 271 269 268 268 270
299 297 297 296 294 292 291 290 289 289 291 290 290 287 284 290 290 286 283 276 274 276 273 272 267 267 267 270 271 268 267 262 265
300 298 297 296 295 294 293 292 289 287 294 289 292 286 288 287 283 287 285 282 279 276 273 270 268 265 267 268 266 265 264 262 257
304 302 297 300 297 296 294 291 294 295 296 297 293 294 292 291 289 287 288 286 288 284 281 273 269 270 267 262 256 250 250 255 256
305 306 305 302 305 301 298 292 294 299 299 298 297 284 279 284 291 289 288 287 285 286 287 285 282 276 278 267 258 259 257 257 259